Wind_Speed
3 2 0 1 2 2 3 4 5 5 5 4 3 3 5 7 7 8 9 9 9 7 7 7 7 7 6 4 6 7 8 8 7 6 6 6 6 6 7 5 4 5 5 7 9 9 10
5 4 3 3 3 4 5 5 6 6 5 3 3 4 6 7 7 9 11 11 9 7 6 7 8 8 8 8 8 8 8 8 8 8 7 7 7 7 7 7 6 7 8 9 10 11 14
6 7 6 7 7 7 6 7 7 6 5 5 4 6 7 7 9 12 9 9 11 11 11 11 11 12 12 12 11 11 11 11 10 10 9 8 8 8 7 7 7 9 14 13 13 13 16
6 6 7 8 8 8 7 7 7 7 6 6 6 7 8 8 9 11 10 10 12 12 12 12 12 13 14 13 13 13 13 11 10 9 10 9 9 9 8 10 13 15 16 11 8 9 10
6 6 7 7 7 7 8 8 8 7 7 6 8 9 9 10 12 13 14 14 14 15 14 14 12 12 10 7 6 6 4 5 6 7 8 9 10 10 11 13 14 12 11 13 10 8 10
8 8 8 8 8 8 9 9 8 8 8 8 9 8 9 10 13 15 15 15 15 16 14 13 9 7 8 10 11 11 13 13 11 10 9 10 11 12 13 12 6 4 8 12 13 12 16
9 9 9 9 9 9 9 9 9 7 8 10 10 9 10 12 15 15 15 14 14 14 13 12 13 12 11 10 8 7 7 7 8 10 12 12 11 9 8 7 6 9 12 16 15 18 22
9 10 10 10 10 10 10 9 9 9 9 10 9 10 11 14 16 16 14 13 13 13 15 14 11 10 6 4 1 0 1 2 2 2 4 4 5 5 6 8 10 13 18 22 22 18 17
11 11 11 11 12 12 11 11 10 10 10 11 11 11 12 14 16 16 14 13 13 13 14 12 6 4 2 1 1 2 2 2 3 3 4 4 6 9 11 14 16 16 20 20 22 24 23
13 13 12 13 13 13 13 13 13 12 12 12 13 13 14 15 15 15 14 14 13 12 9 5 3 4 4 3 4 4 4 5 6 5 8 10 10 10 11 13 15 18 18 20 20 20 8
13 14 14 14 14 14 14 14 14 14 14 14 14 14 15 17 17 15 14 12 10 8 4 4 4 5 6 6 5 7 8 8 10 14 15 11 13 13 15 15 16 19 20 20 21 22 26
12 15 15 15 15 15 16 16 16 15 15 16 16 17 17 18 15 13 13 10 8 4 5 4 4 5 6 7 8 9 10 12 16 17 15 12 13 14 11 16 17 13 18 19 22 21 8
14 14 17 16 16 16 16 17 17 17 16 16 17 17 18 17 13 13 11 9 6 5 5 4 4 6 8 11 13 14 14 15 12 7 9 10 16 20 14 13 15 14 14 7 5 1 5
17 16 15 17 18 17 17 17 17 17 17 17 17 18 18 14 12 13 11 8 7 8 9 9 12 11 14 14 14 15 10 10 13 14 14 7 6 10 9 10 13 12 11 6 5 3 5
19 19 17 16 17 18 18 18 19 18 18 18 18 18 18 16 15 14 13 10 6 8 9 7 11 14 14 12 9 10 12 13 14 8 5 6 7 9 13 17 15 7 10 15 16 18 9
24 22 21 19 17 17 18 19 20 19 18 19 18 19 18 18 17 15 16 16 14 13 13 13 13 10 11 14 11 9 7 8 11 13 13 11 12 14 17 18 18 16 15 9 8 4 6
27 25 26 24 23 19 17 18 20 20 19 20 19 20 20 19 17 16 18 19 19 18 17 14 14 14 16 15 15 15 11 16 17 17 14 14 13 11 10 11 16 16 18 14 15 15 4
26 26 27 28 27 25 21 19 18 20 20 19 20 20 20 18 16 16 19 20 19 18 18 16 16 18 20 19 16 16 19 17 14 16 16 17 14 13 15 22 23 24 23 23 12 5 7
32 26 29 26 24 29 25 23 23 24 23 21 21 21 22 23 22 22 22 22 21 20 18 16 14 14 13 15 12 13 15 17 19 18 9 12 9 9 5 6 10 9 10 8 11 17 17
28 29 34 29 28 25 25 23 23 24 25 24 22 19 20 20 21 21 20 21 21 19 20 19 19 17 18 19 18 15 19 18 19 18 19 19 17 20 19 18 17 21 24 23 21 14 23
39 33 36 25 23 20 22 24 26 23 22 23 22 23 22 19 15 13 14 15 16 17 19 18 19 18 17 18 19 20 24 25 23 21 19 15 19 20 22 23 25 27 23 22 21 24 27
29 29 25 28 26 29 26 23 23 23 24 22 22 21 20 20 20 21 20 21 20 19 18 18 17 22 23 23 22 24 24 23 22 21 17 17 14 16 22 21 19 21 21 23 24 26 28
29 25 28 24 26 23 17 21 24 25 23 23 20 20 20 21 21 21 21 20 18 16 17 18 20 20 21 22 22 22 22 22 23 22 19 17 13 9 6 5 10 17 20 18 15 17 21
31 32 28 26 24 28 31 26 23 24 24 22 20 20 21 22 21 21 21 19 17 18 21 23 22 23 22 21 21 21 21 21 21 21 19 17 14 10 9 10 2 4 8 15 20 21 22
29 24 27 24 22 18 22 21 20 19 19 18 19 19 19 20 19 19 20 19 21 24 23 23 22 21 20 19 18 14 14 14 14 15 16 14 14 10 5 5 13 17 17 17 19 23 25
27 25 23 26 22 17 17 18 17 18 18 16 17 18 18 18 18 19 22 22 23 23 20 21 20 18 17 16 13 7 5 5 4 5 12 12 14 14 9 4 4 5 13 15 17 26 17
24 24 29 34 24 18 18 16 18 18 18 17 16 16 17 18 21 24 23 24 22 20 19 17 17 15 16 13 11 9 7 7 5 5 8 15 14 19 20 15 9 13 11 11 11 17 31
28 26 29 30 27 22 19 18 22 19 18 17 17 17 18 21 22 22 20 21 21 19 17 15 14 13 10 10 7 7 8 8 8 9 8 10 10 9 9 7 8 13 14 17 24 27 31
27 22 27 29 26 22 22 20 23 19 16 19 20 19 19 18 16 16 20 20 17 16 15 13 12 12 7 7 8 7 9 8 11 8 14 10 13 11 9 10 16 21 26 26 27 29 31
Wind_Direction
206 209 243 5 355 359 349 339 331 328 323 323 324 339 339 329 333 333 326 322 318 317 308 295 295 297 300 275 260 260 266 266 269 258 259 260 264 264 272 280 273 271 270 275 272 269 268
251 260 275 283 294 306 313 311 306 307 303 292 301 320 325 326 327 327 322 318 317 324 319 303 300 297 295 287 282 272 265 267 260 255 262 265 262 259 264 271 283 285 288 283 285 287 281
253 260 265 271 277 284 290 292 293 292 286 281 296 314 315 319 324 331 332 335 323 313 306 302 294 289 288 290 283 276 271 268 262 256 257 259 261 255 257 273 277 285 291 288 292 288 277
247 262 272 273 276 283 282 279 278 274 273 283 300 308 310 315 327 332 316 315 317 314 308 302 297 291 286 285 280 275 271 266 261 258 261 260 257 253 259 274 286 292 295 296 300 301 294
246 253 264 270 273 274 273 273 272 268 274 285 300 305 309 319 327 328 325 316 322 323 319 315 315 306 299 290 279 266 256 262 261 257 252 250 248 256 267 278 285 289 281 288 303 304 300
251 255 255 262 264 269 270 270 269 276 284 294 300 303 308 318 325 326 325 321 319 320 323 321 311 315 295 290 280 270 270 271 261 257 251 251 259 268 272 271 275 273 288 290 293 301 294
251 251 253 253 258 259 265 272 273 271 281 296 301 302 307 318 322 320 318 320 321 317 317 311 303 300 298 293 285 283 274 260 255 251 253 256 255 248 249 252 249 270 277 285 292 300 292
249 255 257 258 258 260 261 262 266 268 283 293 292 295 304 315 321 319 320 316 314 309 308 304 299 297 290 297 283 171 170 139 162 186 177 209 219 223 239 264 282 287 285 285 291 287 287
260 255 256 256 261 262 262 261 257 258 273 286 289 295 305 314 320 318 316 314 311 309 306 297 289 282 253 224 214 186 148 154 206 214 251 262 242 250 265 271 269 271 276 285 289 293 293
265 263 262 263 260 262 264 264 264 263 271 285 292 295 301 309 313 311 314 315 314 315 298 271 242 219 221 227 233 214 226 255 264 272 289 287 269 262 268 271 280 284 285 288 287 294 292
268 269 265 266 267 268 269 269 267 267 272 281 289 293 299 308 310 311 311 315 315 314 349 234 238 236 225 230 239 239 253 255 275 284 281 271 259 266 275 280 278 283 284 283 285 286 286
271 268 267 265 266 269 272 272 272 270 275 284 291 295 299 305 302 305 310 311 311 296 258 241 247 260 258 260 257 262 260 270 283 281 274 266 256 265 267 278 281 281 290 291 286 273 263
279 278 272 269 267 269 273 275 274 273 274 281 288 293 299 302 297 301 301 299 291 226 252 250 256 271 271 269 271 270 274 278 273 288 270 269 270 268 268 266 277 279 289 314 306 235 238
268 273 280 274 271 270 269 271 273 275 276 280 284 290 296 291 290 295 294 285 250 250 249 268 277 276 274 280 280 278 274 271 274 280 287 274 251 254 275 268 269 269 259 229 259 233 263
264 269 271 274 269 267 268 269 272 272 276 280 283 287 289 284 286 289 283 260 255 261 266 271 287 286 274 270 261 276 285 271 272 267 256 286 254 271 266 264 257 274 240 246 254 270 284
260 264 268 269 272 270 265 267 268 269 271 274 279 283 284 283 280 279 271 261 258 265 266 272 279 264 257 273 273 272 256 255 261 261 261 266 278 270 266 262 265 254 252 242 214 257 242
255 258 261 263 266 268 270 270 270 269 270 272 276 279 281 278 273 269 264 264 274 273 270 272 267 258 269 271 268 263 264 279 273 274 270 273 269 271 268 255 245 239 240 238 238 241 237
261 256 254 258 260 266 269 272 275 275 271 270 272 276 276 272 267 263 266 271 273 275 275 271 267 270 267 272 270 261 260 261 274 274 277 277 279 272 276 268 267 269 261 251 231 241 250
250 255 255 249 256 264 265 270 276 280 278 271 269 271 269 271 266 268 272 271 273 274 275 276 269 267 267 268 268 256 265 274 271 271 275 280 265 294 283 278 266 245 230 233 252 269 256
257 254 250 244 251 263 262 269 277 276 268 266 265 265 267 268 269 267 267 268 265 269 273 273 272 274 277 275 270 269 277 278 273 270 272 280 267 256 255 276 278 272 275 277 281 263 269
247 268 251 249 246 249 265 263 268 270 264 265 259 260 261 261 266 265 258 257 267 270 272 279 279 281 279 278 283 276 282 279 277 278 275 271 270 274 271 270 273 274 279 278 265 274 274
247 249 262 255 259 259 265 262 265 271 268 261 254 256 257 260 262 264 263 267 270 272 271 276 284 287 280 275 271 279 275 276 278 278 277 272 272 283 284 288 277 272 270 270 274 282 281
244 243 247 262 263 264 270 270 262 268 261 254 249 251 253 255 260 263 267 269 270 268 270 274 279 276 276 277 277 277 277 275 274 278 279 278 279 287 277 272 274 287 270 268 278 286 286
237 253 256 260 252 259 272 273 264 262 250 241 242 248 253 258 258 261 266 269 272 278 278 282 277 276 278 278 277 278 277 276 272 271 267 264 268 257 272 288 247 272 291 289 286 286 287
230 232 247 257 260 268 264 257 255 244 230 231 238 243 249 254 259 264 265 266 281 275 268 273 277 279 278 278 279 279 272 273 263 256 253 251 251 245 247 233 281 281 276 285 291 296 297
233 230 244 232 253 262 249 253 241 224 227 228 234 241 246 253 256 265 265 266 270 270 272 274 275 279 280 279 277 255 249 260 250 223 213 224 230 238 234 238 258 266 295 292 289 298 303
226 242 254 260 271 263 254 242 226 218 221 230 235 242 243 255 274 272 264 265 268 270 270 274 277 278 280 276 264 258 247 226 245 225 213 226 236 240 248 255 259 276 268 290 306 307 310
225 247 256 261 263 259 258 229 213 213 225 237 242 244 253 266 264 266 263 262 266 268 269 277 278 276 276 260 250 246 238 232 243 235 234 232 233 233 241 250 265 267 292 301 303 307 309
231 238 255 261 264 260 256 212 219 213 227 244 250 253 250 245 254 263 263 257 259 267 273 278 272 276 262 248 248 234 242 242 243 249 251 251 240 256 251 259 275 299 307 308 308 312 313
Height
3158 3158 3159 3159 3159 3159 3159 3159 3159 3158 3158 3157 3157 3156 3155 3155 3154 3152 3151 3149 3147 3146 3145 3144 3143 3143 3143 3142 3142 3141 3141 3140 3140 3140 3140 3140 3141 3141 3141 3141 3141 3140 3141 3141 3141 3142 3142
3158 3158 3158 3159 3159 3160 3159 3159 3159 3158 3157 3156 3156 3155 3154 3153 3152 3151 3149 3147 3146 3144 3143 3142 3141 3141 3141 3141 3139 3139 3138 3138 3138 3138 3138 3139 3139 3139 3139 3139 3140 3140 3139 3139 3140 3140 3139
3156 3157 3157 3158 3158 3158 3158 3158 3158 3157 3156 3156 3155 3154 3153 3152 3151 3149 3148 3146 3144 3142 3141 3140 3139 3138 3138 3139 3137 3136 3136 3136 3136 3136 3136 3136 3137 3138 3138 3138 3138 3137 3137 3137 3137 3136 3135
3154 3155 3156 3156 3156 3157 3157 3156 3156 3155 3155 3155 3154 3153 3152 3151 3149 3148 3146 3144 3142 3140 3138 3137 3135 3135 3135 3134 3133 3133 3133 3133 3133 3133 3134 3134 3135 3135 3136 3136 3135 3135 3134 3134 3134 3133 3133
3152 3153 3154 3154 3154 3154 3154 3154 3154 3153 3153 3152 3152 3152 3150 3149 3148 3146 3144 3143 3142 3139 3137 3135 3135 3133 3133 3132 3131 3130 3130 3130 3131 3131 3131 3131 3132 3133 3133 3132 3132 3131 3131 3131 3131 3131 3131
3150 3151 3151 3151 3152 3152 3152 3152 3152 3152 3152 3151 3150 3149 3149 3147 3146 3144 3142 3141 3139 3137 3135 3133 3131 3133 3131 3130 3129 3129 3129 3128 3129 3128 3130 3129 3129 3129 3129 3129 3129 3129 3129 3128 3128 3129 3128
3148 3148 3149 3149 3149 3149 3149 3150 3150 3149 3149 3149 3148 3148 3147 3145 3144 3141 3140 3139 3139 3137 3132 3131 3130 3128 3127 3127 3126 3126 3125 3125 3125 3126 3126 3125 3126 3125 3124 3124 3125 3125 3125 3123 3124 3126 3123
3146 3146 3146 3146 3147 3147 3147 3147 3147 3147 3147 3147 3146 3145 3145 3143 3141 3139 3137 3135 3134 3133 3129 3127 3126 3125 3125 3125 3125 3124 3124 3125 3123 3123 3124 3125 3124 3124 3123 3122 3122 3121 3121 3119 3119 3120 3119
3144 3143 3144 3144 3145 3145 3145 3145 3144 3144 3145 3144 3144 3143 3142 3141 3139 3137 3135 3133 3130 3129 3126 3124 3123 3122 3123 3124 3124 3124 3125 3124 3123 3123 3124 3123 3122 3120 3119 3118 3117 3117 3116 3115 3113 3113 3114
3141 3142 3142 3142 3142 3142 3142 3142 3142 3142 3142 3141 3141 3141 3140 3139 3139 3135 3132 3130 3128 3126 3123 3123 3121 3121 3121 3121 3122 3122 3122 3124 3123 3122 3122 3121 3119 3118 3117 3115 3115 3113 3111 3109 3108 3107 3108
3138 3139 3139 3139 3139 3139 3139 3139 3139 3139 3139 3138 3138 3137 3137 3136 3135 3133 3131 3128 3126 3125 3124 3122 3119 3119 3118 3120 3120 3119 3119 3119 3119 3119 3120 3118 3115 3115 3114 3113 3111 3109 3107 3106 3104 3103 3100
3134 3135 3135 3135 3135 3136 3136 3136 3136 3136 3136 3136 3135 3135 3134 3133 3131 3130 3129 3126 3125 3126 3120 3119 3117 3118 3118 3117 3117 3117 3117 3117 3116 3114 3113 3113 3113 3113 3112 3111 3109 3107 3105 3103 3098 3098 3094
3131 3131 3132 3132 3132 3132 3133 3133 3133 3132 3132 3132 3132 3131 3131 3129 3129 3128 3126 3125 3125 3121 3120 3119 3117 3117 3117 3116 3114 3113 3114 3114 3113 3112 3111 3109 3108 3106 3108 3107 3105 3105 3104 3103 3099 3096 3091
3127 3127 3127 3128 3128 3128 3128 3128 3128 3129 3128 3128 3127 3128 3127 3126 3125 3124 3124 3124 3122 3117 3116 3115 3115 3114 3114 3114 3112 3110 3109 3109 3108 3107 3105 3104 3102 3103 3103 3103 3103 3101 3102 3103 3100 3097 3088
3123 3124 3124 3123 3123 3123 3123 3124 3124 3124 3124 3123 3123 3123 3123 3123 3122 3122 3122 3120 3117 3115 3114 3113 3113 3112 3111 3110 3110 3109 3108 3106 3105 3104 3106 3104 3099 3099 3099 3098 3098 3097 3097 3097 3095 3090 3087
3117 3119 3119 3120 3119 3118 3117 3118 3118 3119 3119 3118 3118 3118 3119 3118 3118 3118 3118 3115 3113 3112 3111 3110 3110 3109 3108 3108 3108 3106 3103 3103 3101 3101 3100 3098 3096 3094 3094 3093 3092 3092 3092 3092 3092 3089 3081
3111 3113 3113 3114 3113 3113 3112 3112 3113 3113 3113 3113 3114 3113 3113 3113 3113 3114 3112 3110 3109 3108 3107 3106 3104 3103 3103 3103 3103 3103 3102 3098 3096 3096 3096 3095 3093 3090 3089 3088 3086 3086 3084 3084 3085 3081 3075
3104 3106 3106 3108 3108 3109 3108 3107 3107 3108 3107 3107 3108 3108 3107 3107 3110 3108 3107 3107 3106 3104 3104 3102 3099 3099 3097 3097 3096 3098 3096 3096 3093 3093 3092 3093 3089 3086 3085 3081 3080 3080 3078 3079 3080 3075 3071
3097 3098 3099 3100 3101 3103 3103 3101 3101 3102 3102 3101 3100 3101 3102 3102 3101 3100 3101 3100 3100 3100 3100 3098 3096 3094 3094 3093 3094 3089 3089 3089 3088 3087 3086 3087 3085 3084 3081 3080 3076 3075 3074 3074 3074 3071 3065
3089 3091 3091 3093 3095 3096 3096 3096 3096 3096 3094 3095 3095 3094 3095 3095 3095 3095 3095 3094 3094 3094 3094 3094 3093 3092 3090 3089 3088 3085 3084 3083 3081 3081 3080 3080 3078 3079 3077 3075 3073 3073 3072 3071 3070 3065 3060
3080 3082 3084 3085 3086 3087 3088 3088 3089 3089 3089 3088 3087 3086 3088 3088 3089 3090 3090 3089 3089 3088 3089 3089 3088 3089 3088 3085 3082 3080 3079 3077 3076 3075 3072 3072 3070 3069 3068 3068 3067 3064 3064 3064 3062 3059 3056
3072 3074 3075 3077 3079 3078 3080 3080 3082 3083 3082 3082 3082 3084 3083 3084 3084 3084 3084 3083 3084 3083 3083 3083 3083 3084 3084 3082 3080 3077 3074 3073 3070 3067 3067 3063 3063 3061 3059 3062 3061 3058 3057 3056 3055 3053 3050
3065 3067 3069 3068 3071 3072 3073 3073 3074 3074 3074 3074 3075 3078 3078 3077 3079 3080 3080 3078 3079 3079 3077 3077 3076 3076 3076 3075 3074 3071 3070 3067 3065 3063 3062 3060 3058 3057 3053 3055 3054 3052 3050 3049 3049 3048 3046
3058 3061 3062 3063 3062 3064 3066 3065 3066 3065 3066 3068 3069 3072 3072 3071 3074 3075 3075 3074 3074 3074 3074 3071 3069 3069 3070 3069 3068 3065 3063 3062 3060 3057 3057 3055 3054 3055 3051 3052 3051 3046 3046 3046 3045 3043 3041
3049 3052 3055 3057 3057 3056 3057 3058 3057 3058 3060 3061 3063 3065 3066 3065 3069 3069 3069 3070 3069 3068 3067 3066 3063 3062 3062 3062 3062 3060 3056 3055 3053 3052 3053 3052 3051 3051 3050 3048 3046 3043 3041 3041 3038 3037 3035
3042 3044 3046 3048 3049 3050 3049 3052 3052 3053 3056 3057 3059 3059 3060 3062 3063 3063 3064 3064 3063 3062 3061 3059 3058 3056 3057 3057 3058 3056 3053 3051 3052 3050 3049 3049 3047 3048 3046 3046 3043 3038 3037 3036 3035 3032 3030
3035 3039 3040 3042 3043 3044 3044 3044 3047 3049 3051 3052 3054 3056 3056 3055 3057 3057 3058 3058 3057 3055 3054 3054 3054 3052 3051 3052 3054 3053 3051 3050 3049 3046 3046 3045 3044 3042 3041 3040 3037 3034 3034 3034 3034 3034 3026
3027 3030 3033 3034 3036 3037 3038 3038 3043 3044 3048 3050 3051 3051 3052 3051 3050 3051 3051 3053 3052 3050 3049 3048 3049 3046 3047 3050 3050 3049 3047 3046 3045 3043 3044 3043 3041 3039 3038 3037 3035 3032 3033 3033 3030 3025 3020
3022 3025 3026 3028 3029 3031 3032 3034 3039 3039 3043 3045 3045 3045 3046 3046 3045 3046 3045 3047 3047 3045 3044 3043 3046 3044 3043 3044 3046 3044 3043 3042 3041 3040 3040 3040 3038 3037 3036 3033 3030 3029 3027 3024 3022 3018 3013